Volver al catálogo

DELTA 1 DEB

ActivoSSO
NORAD 7164·DEBRIS·🇺🇸 United States

Lanzado Nov 6, 1973 desde Vandenberg Space Force Base

Loading…

Próximos Pases (próximas 24 horas)

TLE

ActualizadoSource: Space-Track

Época: Sep 14, 2026, 07:21 UTC

1 07164U 73086EC  26257.30671390  .00000338  00000-0  17346-2 0  9990
2 07164 101.0617 285.4217 0087208  45.1997  18.0251 12.76436362450124

Sigue DELTA 1 DEB en tiempo real con AllMySat

Download on the App Store